Zurück zum Katalog

TITAN 3C TRANSTAGE DEB

AktivHEO
NORAD 26782·DEBRIS·🇺🇸 United States

Gestartet Dec 21, 1965 von Cape Canaveral Space Force Station

Loading…

Nächste Überflüge (nächste 24 Stunden)

TLE

AktuellSource: Space-Track

Epoche: Sep 13, 2026, 00:56 UTC

1 26782U 65108BA  26256.03894032  .00032917 -20181-5  12980-2 0  9997
2 26782  26.4416  51.5217 2739578 266.0929  62.5904  9.88895361421815

Verfolge TITAN 3C TRANSTAGE DEB in Echtzeit mit AllMySat

Download on the App Store